Location: ?????
(32.7281°N, 34.9563°E)
Time: 02:17:27
(UTC+00:00)

MOS 1 Rocket - Pass Details

Date: 29 October 2020
Orbit: 615 x 829 km, 97.4° (Epoch: 25 November)

Event Time Altitude Azimuth Distance (km) Brightness Sun altitude
Rises 16:26:00 0° 11° (N) 3,090 6.5 -20.3°
Reaches altitude 10° 16:28:12 10° 12° (NNE) 2,200 5.7 -20.8°
Maximum altitude 16:33:04 89° 100° (E) 753 3.3 -21.8°
Drops below altitude 10° 16:38:12 10° 192° (SSW) 2,323 6.1 -22.9°
Sets 16:40:34 0° 193° (SSW) 3,275 6.9 -23.4°
